Weather History for Grafenwoehr, Germany

Change the Weather History Date:

Saturday, March 30, 2013

  Actual Average Record
Temperature  
Mean Temperature 36 °F -  
Max Temperature 45 °F - - ()
Min Temperature 28 °F - - ()
Degree Days  
Heating Degree Days 28    
Moisture  
Dew Point 25 °F    
Average Humidity 70    
Maximum Humidity 93    
Minimum Humidity 42    
Precipitation  
Precipitation 0.00 in - - ()
Sea Level Pressure  
Sea Level Pressure 29.68 in    
Wind  
Wind Speed 2 mph ()    
Max Wind Speed 6 mph    
Max Gust Speed -    
Visibility 5.0 miles    
Events      
T = Trace of Precipitation, MM = Missing Value Source: Averaged Metar Reports

Daily Weather History Graph

Daily Weather History Graph

Search for Another Location

Airport:

Trip Planner

Search our weather history database for the weather conditions in past years. The results will help you decide how hot, cold, wet, or windy it might be!

Date:

Astronomy

Mar. 30, 2013 Rise Set
Actual Time 5:53 AM CET 6:40 PM CET
Civil Twilight 5:21 AM CET 7:13 PM CET
Nautical Twilight 4:42 AM CET 7:52 PM CET
Astronomical Twilight 4:01 AM CET 8:33 PM CET
Moon 10:52 PM CET (3/30) 7:14 AM CET (3/30)
Length of Visible Light 13h 52m
Length of Day
12h 47m
Waning Gibbous, 88% of the Moon is Illuminated
Mar 30
Waning Gibbous
Apr 3
Last Quarter
Apr 10
New
Apr 18
First Quarter
Apr 25
Full

Hourly Weather History & Observations

Time (CET) Temp. Windchill Dew Point Humidity Pressure Visibility Wind Dir Wind Speed Gust Speed Precip Events Conditions
12:58 AM 29.3 °F - 26.8 °F 90% 29.73 in 3.7 mi Calm Calm - N/A   Overcast
1:58 AM 29.7 °F 26.1 °F 27.3 °F 91% 29.73 in 3.7 mi WNW 3.5 mph - N/A   Overcast
2:58 AM 29.8 °F - 27.3 °F 90% 29.72 in 3.7 mi Calm Calm - N/A   Overcast
3:58 AM 29.7 °F - 27.1 °F 90% 29.71 in 3.7 mi NW 2.3 mph - N/A   Overcast
4:58 AM 29.8 °F - 27.1 °F 90% 29.71 in 3.7 mi Calm Calm - N/A   Overcast
5:58 AM 29.7 °F - 27.3 °F 91% 29.70 in 3.1 mi Calm Calm - N/A   Overcast
6:01 AM 30.2 °F - 26.6 °F 86% 29.64 in 2.5 mi Calm Calm - N/A   Overcast
6:22 AM 28.4 °F - 26.6 °F 93% 29.63 in - Calm Calm - N/A   Overcast
6:58 AM 29.3 °F - 27.1 °F 92% 29.71 in - SE 1.2 mph - N/A   Overcast
6:59 AM 28.4 °F - 26.6 °F 93% 29.64 in 2.5 mi SSE 1.2 mph - N/A   Overcast
7:40 AM 32.0 °F - 28.4 °F 87% 29.64 in 3.1 mi SE 2.3 mph - N/A   Overcast
7:58 AM 31.3 °F - 28.9 °F 91% 29.71 in 3.1 mi Calm Calm - N/A   Scattered Clouds
8:58 AM 36.0 °F - 30.4 °F 80% 29.71 in 5.0 mi ENE 1.2 mph - N/A   Haze
9:58 AM 38.8 °F - 26.8 °F 62% 29.69 in 6.2 mi Variable 2.3 mph - N/A   Mostly Cloudy
10:58 AM 39.9 °F 37.8 °F 20.7 °F 46% 29.67 in 6.2 mi Variable 3.5 mph - N/A   Scattered Clouds
11:58 AM 40.8 °F 38.8 °F 21.7 °F 47% 29.68 in 6.2 mi Variable 3.5 mph - N/A   Scattered Clouds
12:58 PM 42.1 °F 38.4 °F 22.5 °F 46% 29.65 in 6.2 mi NNE 5.8 mph - N/A   Scattered Clouds
1:58 PM 44.4 °F - 23.0 °F 43% 29.65 in 6.2 mi Variable 1.2 mph - N/A   Partly Cloudy
2:58 PM 43.3 °F - 21.4 °F 42% 29.63 in 6.2 mi Calm Calm - N/A   Scattered Clouds
3:58 PM 45.1 °F 42.8 °F 23.5 °F 43% 29.62 in 6.2 mi Variable 4.6 mph - N/A   Mostly Cloudy
4:58 PM 43.2 °F 40.5 °F 23.0 °F 45% 29.63 in 6.2 mi Variable 4.6 mph - N/A   Scattered Clouds
5:58 PM 41.0 °F 39.0 °F 22.5 °F 48% 29.65 in 6.2 mi Variable 3.5 mph - N/A   Mostly Cloudy
6:58 PM 37.4 °F - 22.6 °F 55% 29.68 in 6.2 mi Variable 2.3 mph - N/A   Overcast
7:58 PM 35.8 °F 30.9 °F 22.6 °F 59% 29.70 in 6.2 mi Variable 5.8 mph - N/A   Mostly Cloudy
8:58 PM 34.9 °F - 22.8 °F 61% 29.71 in 6.2 mi Variable 2.3 mph - N/A   Clear
9:58 PM 34.5 °F - 22.8 °F 62% 29.72 in 6.2 mi Variable 1.2 mph - N/A   Partly Cloudy
10:58 PM 34.0 °F 31.0 °F 23.2 °F 65% 29.73 in 6.2 mi Variable 3.5 mph - N/A   Scattered Clouds
11:58 PM 33.4 °F 30.4 °F 22.8 °F 65% 29.72 in 6.2 mi Variable 3.5 mph - N/A   Partly Cloudy